| time (UTC) | temp C | wind direction | speed KPH | gust KPH | rain 1hr cm | rain 24hr cm | rain mn cm | humidity % | barometer mb |
| 20260507011028 | 13 | 360 | 0.0 | 3.2 | 0.00 | 0.00 | 0.00 | 68 | 1017.0 |
| 20260507010525 | 13 | 360 | 0.0 | 3.2 | 0.00 | 0.00 | 0.00 | 68 | 1017.0 |
| 20260507010031 | 13 | 360 | 0.0 | 3.2 | 0.00 | 0.00 | 0.00 | 67 | 1017.1 |
| 20260507005528 | 13 | 360 | 0.0 | 3.2 | 0.00 | 0.00 | 0.00 | 67 | 1017.1 |
| 20260507005030 | 13 | 360 | 0.0 | 1.6 | 0.00 | 0.00 | 0.00 | 66 | 1017.1 |
| 20260507004523 | 13 | 360 | 0.0 | 0.0 | 0.00 | 0.00 | 0.00 | 66 | 1017.1 |
| 20260507004023 | 13 | 360 | 0.0 | 1.6 | 0.00 | 0.00 | 0.00 | 65 | 1017.0 |
| 20260507003523 | 13 | 111 | 0.0 | 4.8 | 0.00 | 0.00 | 0.00 | 65 | 1017.1 |
| 20260507003022 | 13 | 360 | 1.6 | 4.8 | 0.00 | 0.00 | 0.00 | 65 | 1017.1 |
| 20260507002522 | 13 | 360 | 0.0 | 0.0 | 0.00 | 0.00 | 0.00 | 64 | 1017.1 |
| 20260507002022 | 13 | 360 | 0.0 | 0.0 | 0.00 | 0.00 | 0.00 | 64 | 1017.1 |
| 20260507001526 | 13 | 360 | 0.0 | 0.0 | 0.00 | 0.00 | 0.00 | 65 | 1017.2 |
| 20260507001020 | 13 | 360 | 0.0 | 3.2 | 0.00 | 0.00 | 0.00 | 66 | 1017.3 |
| 20260507000520 | 12 | 360 | 0.0 | 3.2 | 0.00 | 0.00 | 0.00 | 66 | 1017.3 |
| 20260507000019 | 13 | 360 | 0.0 | 1.6 | 0.00 | 0.00 | 0.00 | 66 | 1017.3 |
| 20260506235519 | 13 | 360 | 0.0 | 0.0 | 0.00 | 0.00 | 0.00 | 66 | 1017.4 |
| 20260506235016 | 13 | 360 | 0.0 | 0.0 | 0.00 | 0.00 | 0.00 | 66 | 1017.5 |
| 20260506234516 | 13 | 360 | 0.0 | 1.6 | 0.00 | 0.00 | 0.00 | 66 | 1017.6 |
| 20260506234015 | 13 | 360 | 0.0 | 1.6 | 0.00 | 0.00 | 0.00 | 66 | 1017.7 |
| 20260506233516 | 13 | 360 | 0.0 | 1.6 | 0.00 | 0.00 | 0.00 | 65 | 1017.7 |
| 20260506233014 | 13 | 360 | 0.0 | 0.0 | 0.00 | 0.00 | 0.00 | 65 | 1017.8 |
| 20260506232513 | 13 | 360 | 0.0 | 0.0 | 0.00 | 0.00 | 0.00 | 64 | 1017.7 |
| 20260506232012 | 13 | 360 | 0.0 | 0.0 | 0.00 | 0.00 | 0.00 | 63 | 1017.7 |
| 20260506231512 | 13 | 360 | 0.0 | 1.6 | 0.00 | 0.00 | 0.00 | 63 | 1017.8 |
| 20260506231012 | 13 | 360 | 0.0 | 1.6 | 0.00 | 0.00 | 0.00 | 63 | 1017.8 |
| 20260506230510 | 13 | 360 | 0.0 | 0.0 | 0.00 | 0.00 | 0.00 | 63 | 1017.7 |
| 20260506230010 | 14 | 360 | 0.0 | 1.6 | 0.00 | 0.00 | 0.00 | 61 | 1017.7 |
| 20260506225513 | 14 | 360 | 0.0 | 1.6 | 0.00 | 0.00 | 0.00 | 60 | 1017.7 |
| 20260506225016 | 14 | 360 | 0.0 | 1.6 | 0.00 | 0.00 | 0.00 | 60 | 1017.8 |
| 20260506224508 | 14 | 360 | 0.0 | 1.6 | 0.00 | 0.00 | 0.00 | 59 | 1017.8 |
| 20260506224006 | 14 | 360 | 0.0 | 1.6 | 0.00 | 0.00 | 0.00 | 59 | 1017.8 |
| 20260506223506 | 14 | 360 | 0.0 | 1.6 | 0.00 | 0.00 | 0.00 | 60 | 1017.8 |
| 20260506223009 | 14 | 360 | 0.0 | 0.0 | 0.00 | 0.00 | 0.00 | 60 | 1017.9 |
| 20260506222505 | 14 | 360 | 0.0 | 1.6 | 0.00 | 0.00 | 0.00 | 59 | 1018.0 |
| 20260506222004 | 14 | 360 | 0.0 | 1.6 | 0.00 | 0.00 | 0.00 | 59 | 1018.1 |
| 20260506221505 | 14 | 360 | 0.0 | 1.6 | 0.00 | 0.00 | 0.00 | 59 | 1018.1 |
| 20260506221005 | 14 | 360 | 0.0 | 1.6 | 0.00 | 0.00 | 0.00 | 59 | 1018.1 |
| 20260506220504 | 14 | 360 | 0.0 | 1.6 | 0.00 | 0.00 | 0.00 | 59 | 1018.0 |
| 20260506220005 | 14 | 360 | 0.0 | 1.6 | 0.00 | 0.00 | 0.00 | 59 | 1018.0 |
| 20260506215506 | 14 | 360 | 0.0 | 1.6 | 0.00 | 0.00 | 0.00 | 59 | 1018.0 |
| 20260506215003 | 14 | 360 | 0.0 | 0.0 | 0.00 | 0.00 | 0.00 | 59 | 1018.1 |
| 20260506214503 | 14 | 107 | 0.0 | 1.6 | 0.00 | 0.00 | 0.00 | 59 | 1018.1 |
| 20260506214002 | 14 | 360 | 0.0 | 1.6 | 0.00 | 0.00 | 0.00 | 58 | 1018.1 |
| 20260506213501 | 14 | 360 | 0.0 | 1.6 | 0.00 | 0.00 | 0.00 | 58 | 1018.2 |
| 20260506213107 | 14 | 360 | 0.0 | 1.6 | 0.00 | 0.00 | 0.00 | 57 | 1018.2 |
| 20260506212600 | 14 | 360 | 0.0 | 1.6 | 0.00 | 0.00 | 0.00 | 57 | 1018.3 |
| 20260506212101 | 14 | 360 | 0.0 | 0.0 | 0.00 | 0.00 | 0.00 | 57 | 1018.3 |
| 20260506211559 | 15 | 105 | 0.0 | 0.0 | 0.00 | 0.00 | 0.00 | 57 | 1018.3 |
| 20260506211059 | 15 | 360 | 0.0 | 0.0 | 0.00 | 0.00 | 0.00 | 57 | 1018.3 |
| 20260506210602 | 15 | 360 | 0.0 | 0.0 | 0.00 | 0.00 | 0.00 | 56 | 1018.3 |
| 20260506210057 | 15 | 360 | 0.0 | 0.0 | 0.00 | 0.00 | 0.00 | 57 | 1018.4 |
| 20260506205556 | 15 | 360 | 0.0 | 0.0 | 0.00 | 0.00 | 0.00 | 56 | 1018.4 |
| 20260506205056 | 15 | 360 | 0.0 | 0.0 | 0.00 | 0.00 | 0.00 | 55 | 1018.4 |
| 20260506204556 | 15 | 360 | 0.0 | 1.6 | 0.00 | 0.00 | 0.00 | 56 | 1018.5 |
| 20260506204055 | 15 | 360 | 0.0 | 1.6 | 0.00 | 0.00 | 0.00 | 56 | 1018.5 |
| 20260506203555 | 15 | 360 | 0.0 | 1.6 | 0.00 | 0.00 | 0.00 | 56 | 1018.5 |
| 20260506203056 | 15 | 360 | 0.0 | 1.6 | 0.00 | 0.00 | 0.00 | 56 | 1018.4 |
| 20260506202555 | 15 | 360 | 0.0 | 1.6 | 0.00 | 0.00 | 0.00 | 55 | 1018.4 |
| 20260506202055 | 15 | 360 | 0.0 | 1.6 | 0.00 | 0.00 | 0.00 | 55 | 1018.4 |
| 20260506201557 | 15 | 360 | 0.0 | 1.6 | 0.00 | 0.00 | 0.00 | 56 | 1018.4 |
| 20260506201054 | 15 | 360 | 0.0 | 3.2 | 0.00 | 0.00 | 0.00 | 56 | 1018.4 |
| 20260506200554 | 15 | 104 | 0.0 | 3.2 | 0.00 | 0.00 | 0.00 | 56 | 1018.3 |
| 20260506200053 | 15 | 360 | 0.0 | 1.6 | 0.00 | 0.00 | 0.00 | 56 | 1018.3 |
| 20260506195553 | 15 | 360 | 0.0 | 1.6 | 0.00 | 0.00 | 0.00 | 55 | 1018.3 |
| 20260506195054 | 15 | 360 | 0.0 | 1.6 | 0.00 | 0.00 | 0.00 | 55 | 1018.3 |
| 20260506194552 | 15 | 360 | 0.0 | 1.6 | 0.00 | 0.00 | 0.00 | 55 | 1018.2 |
| 20260506194052 | 15 | 360 | 0.0 | 1.6 | 0.00 | 0.00 | 0.00 | 55 | 1018.2 |
| 20260506193555 | 16 | 360 | 0.0 | 3.2 | 0.00 | 0.00 | 0.00 | 54 | 1018.1 |
| 20260506193050 | 16 | 360 | 0.0 | 3.2 | 0.00 | 0.00 | 0.00 | 54 | 1018.0 |
| 20260506192550 | 16 | 360 | 0.0 | 0.0 | 0.00 | 0.00 | 0.00 | 55 | 1017.9 |
| 20260506192050 | 16 | 105 | 0.0 | 0.0 | 0.00 | 0.00 | 0.00 | 55 | 1017.9 |
| 20260506191550 | 15 | 103 | 0.0 | 0.0 | 0.00 | 0.00 | 0.00 | 56 | 1017.8 |
| 20260506191050 | 16 | 103 | 0.0 | 0.0 | 0.00 | 0.00 | 0.00 | 56 | 1017.8 |
| 20260506190549 | 16 | 103 | 0.0 | 0.0 | 0.00 | 0.00 | 0.00 | 56 | 1017.8 |
| 20260506190053 | 16 | 103 | 0.0 | 0.0 | 0.00 | 0.00 | 0.00 | 57 | 1017.7 |
| 20260506185549 | 16 | 103 | 0.0 | 0.0 | 0.00 | 0.00 | 0.00 | 57 | 1017.7 |
| 20260506185049 | 16 | 103 | 0.0 | 0.0 | 0.00 | 0.00 | 0.00 | 58 | 1017.6 |
| 20260506184552 | 16 | 103 | 0.0 | 0.0 | 0.00 | 0.00 | 0.00 | 57 | 1017.6 |
| 20260506184048 | 16 | 103 | 0.0 | 0.0 | 0.00 | 0.00 | 0.00 | 57 | 1017.6 |
| 20260506183551 | 16 | 103 | 0.0 | 1.6 | 0.00 | 0.00 | 0.00 | 57 | 1017.6 |
| 20260506183050 | 16 | 103 | 0.0 | 1.6 | 0.00 | 0.00 | 0.00 | 56 | 1017.5 |
| 20260506182547 | 16 | 103 | 0.0 | 1.6 | 0.00 | 0.00 | 0.00 | 56 | 1017.4 |
| 20260506182048 | 16 | 103 | 0.0 | 3.2 | 0.00 | 0.00 | 0.00 | 55 | 1017.4 |
| 20260506181548 | 16 | 103 | 0.0 | 3.2 | 0.00 | 0.00 | 0.00 | 55 | 1017.4 |
| 20260506181048 | 16 | 103 | 0.0 | 3.2 | 0.00 | 0.00 | 0.00 | 55 | 1017.3 |
| 20260506180548 | 16 | 360 | 0.0 | 3.2 | 0.00 | 0.00 | 0.00 | 54 | 1017.3 |
| 20260506180048 | 16 | 360 | 0.0 | 1.6 | 0.00 | 0.00 | 0.00 | 54 | 1017.3 |
| 20260506175547 | 16 | 101 | 0.0 | 1.6 | 0.00 | 0.00 | 0.00 | 54 | 1017.2 |
| 20260506175047 | 17 | 103 | 0.0 | 3.2 | 0.00 | 0.00 | 0.00 | 53 | 1017.2 |
| 20260506174546 | 17 | 102 | 0.0 | 3.2 | 0.00 | 0.00 | 0.00 | 53 | 1017.2 |
| 20260506174046 | 17 | 98 | 0.0 | 1.6 | 0.00 | 0.00 | 0.00 | 53 | 1017.1 |
| 20260506173546 | 17 | 360 | 0.0 | 3.2 | 0.00 | 0.00 | 0.00 | 52 | 1017.1 |
| 20260506173121 | 17 | 360 | 0.0 | 3.2 | 0.00 | 0.00 | 0.00 | 52 | 1017.0 |
| 20260506172546 | 17 | 360 | 0.0 | 3.2 | 0.00 | 0.00 | 0.00 | 51 | 1017.0 |
| 20260506172049 | 17 | 360 | 0.0 | 3.2 | 0.00 | 0.00 | 0.00 | 51 | 1017.0 |
| 20260506171546 | 17 | 360 | 0.0 | 3.2 | 0.00 | 0.00 | 0.00 | 50 | 1017.0 |
| 20260506171046 | 17 | 360 | 0.0 | 3.2 | 0.00 | 0.00 | 0.00 | 50 | 1017.0 |
| 20260506170546 | 18 | 360 | 0.0 | 3.2 | 0.00 | 0.00 | 0.00 | 49 | 1016.9 |
| 20260506170046 | 18 | 360 | 0.0 | 3.2 | 0.00 | 0.00 | 0.00 | 48 | 1016.9 |
| 20260506165545 | 18 | 98 | 0.0 | 4.8 | 0.00 | 0.00 | 0.00 | 48 | 1017.0 |
| 20260506165045 | 18 | 102 | 0.0 | 4.8 | 0.00 | 0.00 | 0.00 | 47 | 1017.0 |
| 20260506164553 | 18 | 360 | 0.0 | 4.8 | 0.00 | 0.00 | 0.00 | 47 | 1016.9 |
| 20260506164045 | 19 | 360 | 0.0 | 4.8 | 0.00 | 0.00 | 0.00 | 46 | 1016.9 |
| 20260506163544 | 19 | 107 | 3.2 | 8.0 | 0.00 | 0.00 | 0.00 | 46 | 1016.9 |
| 20260506163044 | 19 | 64 | 1.6 | 8.0 | 0.00 | 0.00 | 0.00 | 45 | 1016.9 |
| 20260506162545 | 19 | 42 | 0.0 | 6.4 | 0.00 | 0.00 | 0.00 | 45 | 1016.9 |
| 20260506162044 | 19 | 42 | 1.6 | 6.4 | 0.00 | 0.00 | 0.00 | 45 | 1016.9 |
| 20260506161544 | 20 | 77 | 1.6 | 8.0 | 0.00 | 0.00 | 0.00 | 44 | 1016.8 |
| 20260506161044 | 20 | 59 | 1.6 | 8.0 | 0.00 | 0.00 | 0.00 | 45 | 1016.8 |
| 20260506160544 | 20 | 74 | 0.0 | 4.8 | 0.00 | 0.00 | 0.00 | 44 | 1016.8 |
| 20260506160046 | 20 | 74 | 1.6 | 6.4 | 0.00 | 0.00 | 0.00 | 44 | 1016.8 |
| 20260506155543 | 20 | 84 | 1.6 | 6.4 | 0.00 | 0.00 | 0.00 | 44 | 1016.9 |
| 20260506155043 | 20 | 84 | 3.2 | 6.4 | 0.00 | 0.00 | 0.00 | 44 | 1016.8 |
| 20260506154549 | 20 | 28 | 1.6 | 6.4 | 0.00 | 0.00 | 0.00 | 43 | 1016.9 |
| 20260506154043 | 21 | 92 | 1.6 | 6.4 | 0.00 | 0.00 | 0.00 | 43 | 1016.8 |
| 20260506153542 | 21 | 57 | 3.2 | 6.4 | 0.00 | 0.00 | 0.00 | 44 | 1016.9 |
| 20260506153047 | 21 | 86 | 3.2 | 6.4 | 0.00 | 0.00 | 0.00 | 43 | 1016.9 |
| 20260506152542 | 21 | 82 | 1.6 | 4.8 | 0.00 | 0.00 | 0.00 | 44 | 1017.0 |
| 20260506152043 | 21 | 82 | 1.6 | 4.8 | 0.00 | 0.00 | 0.00 | 44 | 1016.9 |
| 20260506151542 | 21 | 93 | 0.0 | 6.4 | 0.00 | 0.00 | 0.00 | 44 | 1016.9 |
| 20260506151042 | 22 | 72 | 3.2 | 8.0 | 0.00 | 0.00 | 0.00 | 43 | 1016.9 |
| 20260506150546 | 22 | 168 | 3.2 | 11.3 | 0.00 | 0.00 | 0.00 | 43 | 1016.9 |
| 20260506150044 | 22 | 92 | 3.2 | 11.3 | 0.00 | 0.00 | 0.00 | 43 | 1016.9 |
| 20260506145542 | 22 | 53 | 0.0 | 11.3 | 0.00 | 0.00 | 0.00 | 43 | 1016.9 |
| 20260506145041 | 22 | 248 | 3.2 | 11.3 | 0.00 | 0.00 | 0.00 | 44 | 1017.0 |
| 20260506144543 | 21 | 91 | 1.6 | 4.8 | 0.00 | 0.00 | 0.00 | 50 | 1017.0 |
| 20260506144041 | 21 | 100 | 1.6 | 4.8 | 0.00 | 0.00 | 0.00 | 53 | 1017.0 |
| 20260506143541 | 21 | 102 | 0.0 | 6.4 | 0.00 | 0.00 | 0.00 | 56 | 1017.0 |
| 20260506143043 | 21 | 101 | 1.6 | 6.4 | 0.00 | 0.00 | 0.00 | 59 | 1017.1 |
| 20260506142541 | 21 | 88 | 1.6 | 6.4 | 0.00 | 0.00 | 0.00 | 57 | 1017.1 |
| 20260506142040 | 21 | 136 | 1.6 | 6.4 | 0.00 | 0.00 | 0.00 | 55 | 1017.0 |
| 20260506141540 | 21 | 136 | 0.0 | 9.7 | 0.00 | 0.00 | 0.00 | 53 | 1017.1 |
| 20260506141040 | 21 | 89 | 1.6 | 9.7 | 0.00 | 0.00 | 0.00 | 53 | 1017.0 |
| 20260506140542 | 22 | 95 | 1.6 | 11.3 | 0.00 | 0.00 | 0.00 | 52 | 1017.0 |
| 20260506140041 | 22 | 143 | 1.6 | 11.3 | 0.00 | 0.00 | 0.00 | 52 | 1017.1 |
| 20260506135539 | 22 | 109 | 0.0 | 4.8 | 0.00 | 0.00 | 0.00 | 54 | 1017.1 |
| 20260506135039 | 21 | 84 | 0.0 | 4.8 | 0.00 | 0.00 | 0.00 | 54 | 1017.1 |
| 20260506134539 | 21 | 146 | 1.6 | 6.4 | 0.00 | 0.00 | 0.00 | 54 | 1017.1 |
| 20260506134040 | 21 | 123 | 1.6 | 8.0 | 0.00 | 0.00 | 0.00 | 55 | 1017.1 |
| 20260506133539 | 21 | 152 | 4.8 | 8.0 | 0.00 | 0.00 | 0.00 | 55 | 1017.1 |
| 20260506133039 | 21 | 115 | 3.2 | 6.4 | 0.00 | 0.00 | 0.00 | 54 | 1017.2 |
| 20260506132541 | 21 | 86 | 3.2 | 9.7 | 0.00 | 0.00 | 0.00 | 54 | 1017.1 |
| 20260506132038 | 21 | 113 | 0.0 | 9.7 | 0.00 | 0.00 | 0.00 | 55 | 1017.1 |
| 20260506131548 | 21 | 134 | 3.2 | 6.4 | 0.00 | 0.00 | 0.00 | 54 | 1017.1 |
| 20260506131038 | 22 | 96 | 0.0 | 8.0 | 0.00 | 0.00 | 0.00 | 53 | 1017.1 |
| 20260506130538 | 21 | 110 | 0.0 | 8.0 | 0.00 | 0.00 | 0.00 | 53 | 1017.2 |
| 20260506130053 | 22 | 136 | 3.2 | 12.9 | 0.00 | 0.00 | 0.00 | 53 | 1017.2 |
| 20260506125537 | 21 | 114 | 4.8 | 12.9 | 0.00 | 0.00 | 0.00 | 52 | 1017.1 |
| 20260506125038 | 22 | 89 | 1.6 | 12.9 | 0.00 | 0.00 | 0.00 | 52 | 1017.3 |
| 20260506124536 | 22 | 94 | 4.8 | 12.9 | 0.00 | 0.00 | 0.00 | 53 | 1017.2 |
| 20260506124036 | 22 | 150 | 3.2 | 12.9 | 0.00 | 0.00 | 0.00 | 51 | 1017.2 |
| 20260506123536 | 22 | 159 | 3.2 | 14.5 | 0.00 | 0.00 | 0.00 | 53 | 1017.2 |
| 20260506123037 | 22 | 69 | 4.8 | 12.9 | 0.00 | 0.00 | 0.00 | 50 | 1017.3 |
| 20260506122538 | 22 | 109 | 1.6 | 9.7 | 0.00 | 0.00 | 0.00 | 51 | 1017.4 |
| 20260506122035 | 22 | 113 | 3.2 | 11.3 | 0.00 | 0.00 | 0.00 | 50 | 1017.4 |
| 20260506121535 | 22 | 78 | 3.2 | 11.3 | 0.00 | 0.00 | 0.00 | 50 | 1017.4 |
| 20260506121035 | 22 | 75 | 4.8 | 11.3 | 0.00 | 0.00 | 0.00 | 49 | 1017.4 |
| 20260506120535 | 22 | 134 | 3.2 | 11.3 | 0.00 | 0.00 | 0.00 | 49 | 1017.4 |
| 20260506120035 | 22 | 130 | 4.8 | 11.3 | 0.00 | 0.00 | 0.00 | 48 | 1017.5 |
| 20260506115535 | 22 | 116 | 3.2 | 12.9 | 0.00 | 0.00 | 0.00 | 49 | 1017.5 |
| 20260506115033 | 22 | 102 | 3.2 | 14.5 | 0.00 | 0.00 | 0.00 | 51 | 1017.5 |
| 20260506114535 | 22 | 101 | 3.2 | 14.5 | 0.00 | 0.00 | 0.00 | 50 | 1017.4 |
| 20260506114033 | 22 | 101 | 4.8 | 12.9 | 0.00 | 0.00 | 0.00 | 51 | 1017.5 |
| 20260506113533 | 22 | 143 | 6.4 | 11.3 | 0.00 | 0.00 | 0.00 | 51 | 1017.5 |
| 20260506113040 | 22 | 138 | 3.2 | 12.9 | 0.00 | 0.00 | 0.00 | 51 | 1017.5 |
| 20260506112533 | 22 | 126 | 4.8 | 14.5 | 0.00 | 0.00 | 0.00 | 52 | 1017.5 |
| 20260506112035 | 22 | 116 | 8.0 | 14.5 | 0.00 | 0.00 | 0.00 | 53 | 1017.5 |
| 20260506111533 | 22 | 142 | 4.8 | 11.3 | 0.00 | 0.00 | 0.00 | 51 | 1017.6 |
| 20260506111032 | 22 | 101 | 4.8 | 11.3 | 0.00 | 0.00 | 0.00 | 52 | 1017.6 |
| 20260506110532 | 22 | 134 | 3.2 | 8.0 | 0.00 | 0.00 | 0.00 | 49 | 1017.6 |
| 20260506110035 | 22 | 88 | 3.2 | 11.3 | 0.00 | 0.00 | 0.00 | 51 | 1017.6 |
| 20260506105532 | 22 | 80 | 3.2 | 11.3 | 0.00 | 0.00 | 0.00 | 51 | 1017.6 |
| 20260506105031 | 22 | 126 | 3.2 | 12.9 | 0.00 | 0.00 | 0.00 | 49 | 1017.6 |
| 20260506104531 | 22 | 126 | 4.8 | 12.9 | 0.00 | 0.00 | 0.00 | 51 | 1017.6 |
| 20260506104030 | 22 | 121 | 3.2 | 11.3 | 0.00 | 0.00 | 0.00 | 48 | 1017.6 |
| 20260506103530 | 23 | 76 | 1.6 | 9.7 | 0.00 | 0.00 | 0.00 | 50 | 1017.7 |
| 20260506103038 | 22 | 134 | 3.2 | 11.3 | 0.00 | 0.00 | 0.00 | 49 | 1017.7 |
| 20260506102530 | 22 | 128 | 4.8 | 14.5 | 0.00 | 0.00 | 0.00 | 49 | 1017.7 |
| 20260506102030 | 23 | 121 | 3.2 | 14.5 | 0.00 | 0.00 | 0.00 | 48 | 1017.6 |
| 20260506101543 | 23 | 40 | 3.2 | 8.0 | 0.00 | 0.00 | 0.00 | 47 | 1017.7 |
| 20260506101028 | 23 | 50 | 1.6 | 9.7 | 0.00 | 0.00 | 0.00 | 43 | 1017.8 |
| 20260506100528 | 23 | 68 | 3.2 | 9.7 | 0.00 | 0.00 | 0.00 | 40 | 1017.7 |
| 20260506100034 | 24 | 61 | 1.6 | 11.3 | 0.00 | 0.00 | 0.00 | 38 | 1017.7 |
| 20260506095528 | 24 | 54 | 3.2 | 11.3 | 0.00 | 0.00 | 0.00 | 39 | 1017.7 |
| 20260506095032 | 24 | 185 | 3.2 | 8.0 | 0.00 | 0.00 | 0.00 | 38 | 1017.8 |
| 20260506094526 | 24 | 17 | 1.6 | 6.4 | 0.00 | 0.00 | 0.00 | 38 | 1017.8 |
| 20260506094027 | 24 | 344 | 3.2 | 8.0 | 0.00 | 0.00 | 0.00 | 37 | 1017.8 |
| 20260506093526 | 24 | 82 | 3.2 | 8.0 | 0.00 | 0.00 | 0.00 | 38 | 1017.9 |
| 20260506093033 | 23 | 190 | 3.2 | 16.1 | 0.00 | 0.00 | 0.00 | 39 | 1017.8 |
| 20260506092524 | 24 | 223 | 3.2 | 16.1 | 0.00 | 0.00 | 0.00 | 40 | 1017.9 |
| 20260506092025 | 23 | 5 | 1.6 | 8.0 | 0.00 | 0.00 | 0.00 | 41 | 1017.8 |
| 20260506091522 | 23 | 47 | 1.6 | 11.3 | 0.00 | 0.00 | 0.00 | 39 | 1017.8 |
| 20260506091024 | 23 | 200 | 4.8 | 11.3 | 0.00 | 0.00 | 0.00 | 41 | 1017.9 |
| 20260506090520 | 23 | 194 | 1.6 | 11.3 | 0.00 | 0.00 | 0.00 | 41 | 1017.9 |
| 20260506090020 | 23 | 9 | 3.2 | 8.0 | 0.00 | 0.00 | 0.00 | 41 | 1017.9 |
| 20260506085524 | 23 | 263 | 1.6 | 11.3 | 0.00 | 0.00 | 0.00 | 39 | 1017.8 |
| 20260506085019 | 23 | 259 | 1.6 | 11.3 | 0.00 | 0.00 | 0.00 | 40 | 1017.9 |
| 20260506084518 | 24 | 55 | 1.6 | 6.4 | 0.00 | 0.00 | 0.00 | 41 | 1017.9 |
| 20260506084018 | 23 | 280 | 1.6 | 11.3 | 0.00 | 0.00 | 0.00 | 39 | 1017.9 |
| 20260506083517 | 23 | 355 | 4.8 | 11.3 | 0.00 | 0.00 | 0.00 | 42 | 1017.8 |
| 20260506083017 | 22 | 100 | 1.6 | 6.4 | 0.00 | 0.00 | 0.00 | 43 | 1017.8 |
| 20260506082515 | 22 | 248 | 1.6 | 9.7 | 0.00 | 0.00 | 0.00 | 43 | 1017.8 |
| 20260506082017 | 23 | 151 | 1.6 | 9.7 | 0.00 | 0.00 | 0.00 | 43 | 1017.8 |
| 20260506081514 | 23 | 171 | 0.0 | 11.3 | 0.00 | 0.00 | 0.00 | 43 | 1017.8 |
| 20260506081014 | 22 | 246 | 1.6 | 11.3 | 0.00 | 0.00 | 0.00 | 44 | 1017.8 |
| 20260506080514 | 22 | 280 | 4.8 | 8.0 | 0.00 | 0.00 | 0.00 | 44 | 1017.8 |
| 20260506073506 | 21 | 17 | 0.0 | 8.0 | 0.00 | 0.00 | 0.00 | 47 | 1017.6 |
| 20260506073011 | 21 | 71 | 1.6 | 8.0 | 0.00 | 0.00 | 0.00 | 48 | 1017.6 |
| 20260506072507 | 21 | 63 | 3.2 | 4.8 | 0.00 | 0.00 | 0.00 | 48 | 1017.5 |
| 20260506072005 | 21 | 49 | 1.6 | 4.8 | 0.00 | 0.00 | 0.00 | 48 | 1017.5 |
| 20260506071503 | 21 | 32 | 0.0 | 6.4 | 0.00 | 0.00 | 0.00 | 47 | 1017.6 |
| 20260506071006 | 21 | 32 | 1.6 | 6.4 | 0.00 | 0.00 | 0.00 | 49 | 1017.5 |
| 20260506070503 | 21 | 51 | 3.2 | 8.0 | 0.00 | 0.00 | 0.00 | 49 | 1017.5 |
| 20260506062053 | 19 | 73 | 0.0 | 4.8 | 0.00 | 0.00 | 0.00 | 51 | 1017.6 |
| 20260506061553 | 19 | 74 | 1.6 | 4.8 | 0.00 | 0.00 | 0.00 | 51 | 1017.5 |
| 20260506061053 | 19 | 76 | 0.0 | 3.2 | 0.00 | 0.00 | 0.00 | 52 | 1017.6 |
| 20260506060551 | 19 | 109 | 0.0 | 3.2 | 0.00 | 0.00 | 0.00 | 51 | 1017.6 |
| 20260506051038 | 15 | 181 | 0.0 | 1.6 | 0.00 | 0.00 | 0.00 | 66 | 1017.3 |
| 20260506050537 | 15 | 182 | 0.0 | 1.6 | 0.00 | 0.00 | 0.00 | 68 | 1017.4 |
| 20260506045032 | 13 | 182 | 0.0 | 1.6 | 0.00 | 0.00 | 0.00 | 74 | 1017.2 |
| 20260506044604 | 13 | 181 | 0.0 | 1.6 | 0.00 | 0.00 | 0.00 | 74 | 1017.2 |
| 20260506044031 | 13 | 360 | 0.0 | 1.6 | 0.00 | 0.00 | 0.00 | 72 | 1017.3 |
| 20260506043529 | 13 | 182 | 0.0 | 1.6 | 0.00 | 0.00 | 0.00 | 72 | 1017.2 |
| 20260506043028 | 13 | 182 | 0.0 | 1.6 | 0.00 | 0.00 | 0.00 | 72 | 1017.2 |
| 20260506042527 | 12 | 181 | 0.0 | 1.6 | 0.00 | 0.00 | 0.00 | 73 | 1017.2 |
| 20260506042026 | 13 | 181 | 0.0 | 1.6 | 0.00 | 0.00 | 0.00 | 72 | 1017.1 |
| 20260506041526 | 13 | 182 | 0.0 | 3.2 | 0.00 | 0.00 | 0.00 | 70 | 1017.0 |
| 20260506041030 | 13 | 181 | 0.0 | 3.2 | 0.00 | 0.00 | 0.00 | 70 | 1017.0 |
| 20260506040528 | 13 | 181 | 0.0 | 0.0 | 0.00 | 0.00 | 0.00 | 71 | 1017.0 |
| 20260506040028 | 13 | 181 | 0.0 | 4.8 | 0.00 | 0.00 | 0.00 | 71 | 1016.9 |
| 20260506035528 | 12 | 181 | 0.0 | 4.8 | 0.00 | 0.00 | 0.00 | 72 | 1016.8 |
| 20260506035024 | 12 | 182 | 0.0 | 6.4 | 0.00 | 0.00 | 0.00 | 71 | 1016.7 |
| 20260506034544 | 12 | 192 | 1.6 | 6.4 | 0.00 | 0.00 | 0.00 | 70 | 1016.6 |
| 20260506034022 | 12 | 217 | 0.0 | 0.0 | 0.00 | 0.00 | 0.00 | 70 | 1016.5 |
| 20260506033522 | 12 | 217 | 0.0 | 0.0 | 0.00 | 0.00 | 0.00 | 69 | 1016.7 |
| 20260506033021 | 12 | 215 | 0.0 | 0.0 | 0.00 | 0.00 | 0.00 | 70 | 1016.6 |
| 20260506032520 | 12 | 216 | 0.0 | 0.0 | 0.00 | 0.00 | 0.00 | 71 | 1016.6 |
| 20260506032024 | 12 | 216 | 0.0 | 0.0 | 0.00 | 0.00 | 0.00 | 71 | 1016.5 |
| 20260506031521 | 12 | 216 | 0.0 | 0.0 | 0.00 | 0.00 | 0.00 | 71 | 1016.6 |
| 20260506031020 | 12 | 215 | 0.0 | 0.0 | 0.00 | 0.00 | 0.00 | 72 | 1016.6 |
| 20260506030522 | 12 | 216 | 0.0 | 1.6 | 0.00 | 0.00 | 0.00 | 72 | 1016.6 |
| 20260506030020 | 12 | 216 | 0.0 | 3.2 | 0.00 | 0.00 | 0.00 | 71 | 1016.5 |
| 20260506025521 | 12 | 216 | 0.0 | 3.2 | 0.00 | 0.00 | 0.00 | 71 | 1016.6 |
| 20260506025019 | 12 | 215 | 0.0 | 3.2 | 0.00 | 0.00 | 0.00 | 71 | 1016.5 |
| 20260506024519 | 12 | 215 | 0.0 | 3.2 | 0.00 | 0.00 | 0.00 | 71 | 1016.5 |
| 20260506024019 | 12 | 215 | 0.0 | 3.2 | 0.00 | 0.00 | 0.00 | 71 | 1016.5 |
| 20260506023519 | 13 | 215 | 0.0 | 3.2 | 0.00 | 0.00 | 0.00 | 70 | 1016.5 |
| 20260506023018 | 13 | 215 | 0.0 | 4.8 | 0.00 | 0.00 | 0.00 | 70 | 1016.5 |
| 20260506022518 | 13 | 215 | 0.0 | 4.8 | 0.00 | 0.00 | 0.00 | 70 | 1016.5 |
| 20260506022018 | 12 | 226 | 1.6 | 6.4 | 0.00 | 0.00 | 0.00 | 70 | 1016.5 |
| 20260506021518 | 13 | 248 | 0.0 | 6.4 | 0.00 | 0.00 | 0.00 | 70 | 1016.6 |
| 20260506021018 | 13 | 243 | 1.6 | 4.8 | 0.00 | 0.00 | 0.00 | 71 | 1016.6 |
| 20260506020518 | 12 | 216 | 0.0 | 4.8 | 0.00 | 0.00 | 0.00 | 72 | 1016.6 |
| 20260506020017 | 12 | 228 | 0.0 | 3.2 | 0.00 | 0.00 | 0.00 | 72 | 1016.6 |
| 20260506015519 | 12 | 223 | 1.6 | 3.2 | 0.00 | 0.00 | 0.00 | 72 | 1016.7 |
| 20260506015016 | 12 | 224 | 0.0 | 4.8 | 0.00 | 0.00 | 0.00 | 71 | 1016.7 |
| 20260506014517 | 12 | 223 | 1.6 | 4.8 | 0.00 | 0.00 | 0.00 | 71 | 1016.7 |
| 20260506014014 | 12 | 236 | 0.0 | 1.6 | 0.00 | 0.00 | 0.00 | 72 | 1016.7 |
| 20260506013515 | 12 | 236 | 0.0 | 1.6 | 0.00 | 0.00 | 0.00 | 71 | 1016.8 |
| 20260506013015 | 12 | 236 | 0.0 | 4.8 | 0.00 | 0.00 | 0.00 | 72 | 1016.8 |
| 20260506012515 | 12 | 236 | 0.0 | 4.8 | 0.00 | 0.00 | 0.00 | 72 | 1016.8 |
| 20260506012015 | 12 | 111 | 0.0 | 3.2 | 0.00 | 0.00 | 0.00 | 72 | 1016.7 |
| 20260506011517 | 12 | 105 | 0.0 | 1.6 | 0.00 | 0.00 | 0.00 | 73 | 1016.8 |